Location: Wildcat Hills Observatory
(41.6350°N, 103.6812°W)
Time: 05:06:10
(UTC-06:00)

Daily predictions for brighter satellites

Satellite Brightness Start Highest point End
(mag) Time Altitude Azimuth Time Altitude Azimuth Time Altitude Azimuth
SJ 16-02 3.9 00:02:34 10° WNW 00:03:54 11° W 00:04:11 11° W
Cosmos 2237 Rocket 2.0 00:01:19 10° NNW 00:07:03 88° ENE 00:07:27 79° SSE
Terra 3.8 00:08:32 17° W 00:09:03 17° W 00:12:09 10° NW
Cosmos 2082 3.7 00:12:54 68° ESE 00:12:54 68° ESE 00:18:32 10° NNE
Cosmos 2228 4.1 00:10:32 10° NNW 00:13:55 36° WNW 00:13:55 36° WNW
Cosmos 1538 Rocket 4.1 00:15:59 62° W 00:16:22 64° WNW 00:21:35 10° NNE
ISS -0.7 00:14:49 10° NNW 00:16:53 15° N 00:18:39 11° NE
Cosmos 923 Rocket 4.2 00:23:39 62° ENE 00:23:39 62° ENE 00:28:25 10° NNE
Cosmos 1680 Rocket 4.0 00:25:20 47° ENE 00:25:20 47° ENE 00:29:41 10° NNE
Cosmos 1758 4.4 00:22:47 10° NNW 00:25:42 42° NW 00:25:42 42° NW
Cosmos 2058 Rocket 4.4 00:23:20 10° NNW 00:26:53 32° WNW 00:26:53 32° WNW
COSMOS 2455 2.9 00:30:39 63° WSW 00:31:35 76° WNW 00:37:39 10° NNE
Cosmos 1400 Rocket 4.4 00:35:16 30° NE 00:35:16 30° NE 00:37:49 10° NNE
ADEOS Rocket 2.6 00:30:45 10° NNE 00:36:18 78° ESE 00:36:22 78° ESE
ALOS 2 3.3 00:40:16 50° NW 00:40:16 50° NW 00:43:43 10° NNW
CZ-4B R/B 3.5 00:36:18 10° NNE 00:41:18 82° NW 00:41:18 82° NW
Cosmos 2219 Rocket 4.1 00:54:05 10° WNW 00:57:01 16° W 00:57:01 16° W
USA 229 DEB 3.7 00:57:26 56° SE 00:57:47 57° ESE 01:04:29 10° NE
USA 229 3.7 00:57:33 56° SE 00:57:53 56° ESE 01:04:35 10° NE
deb Chang Zheng 4 4.1 00:53:39 10° NNE 00:57:06 56° N 00:57:06 56° N
Cosmos 1953 Rocket 4.4 01:03:19 45° NE 01:03:19 45° NE 01:06:36 10° NNE
Cosmos 1315 Rocket 4.4 01:08:27 30° NE 01:08:27 30° NE 01:10:53 10° NNE
Meteor 1-24 Rocket 4.0 01:07:11 55° ESE 01:07:28 55° E 01:13:11 10° NNE
Cosmos 1953 4.4 01:05:52 10° NW 01:07:49 21° WNW 01:07:49 21° WNW
Meteor 2-5 Rocket 3.6 01:10:12 80° S 01:10:32 89° E 01:16:29 10° N
Cosmos 1758 Rocket 4.0 01:13:07 61° N 01:13:07 61° N 01:16:52 10° N
Cosmos-2242 3.8 01:09:29 10° N 01:13:00 47° NE 01:13:00 47° NE
Cosmos 972 Rocket 3.9 01:14:59 85° ENE 01:14:59 85° ENE 01:20:01 10° NNE
Cosmos 2333 Rocket 4.4 01:13:39 10° WNW 01:15:37 13° W 01:15:37 13° W
DELTA 2 R/B (1) 4.4 01:24:52 38° ESE 01:24:52 38° ESE 01:28:18 10° E
SL-16 R/B 2.5 01:17:25 10° NNW 01:22:35 54° W 01:22:35 54° W
Cosmos 2263 Rocket 3.5 01:22:47 26° ESE 01:22:58 26° ESE 01:27:37 10° NE
H-2A R/B 3.8 01:24:33 24° WNW 01:24:33 24° WNW 01:26:58 10° NW
Meteor 1-16 Rocket 4.3 01:18:34 10° NNW 01:23:31 57° W 01:23:31 57° W
BREEZE-M DEB (TANK) 4.2 00:58:35 10° WNW 01:24:10 64° SW 01:25:55 52° S
Cosmos 1818 4.5 01:26:14 36° W 01:27:31 42° NW 01:32:42 10° NNE
Cosmos 1346 Rocket 4.1 01:25:10 10° N 01:28:04 35° NE 01:28:04 35° NE
MOS 1 Rocket 3.7 01:25:16 10° NNE 01:30:42 65° E 01:30:56 64° ESE
Mayak 0.9 01:28:33 10° NNW 01:31:22 18° WNW 01:31:30 18° WNW
SL-08 R/B 4.3 01:30:17 10° N 01:36:26 84° E 01:37:21 66° SSE
Cosmos 1726 3.7 01:33:58 10° N 01:36:35 31° NE 01:36:35 31° NE
Cosmos 1238 Rocket 3.9 01:38:01 44° WNW 01:38:01 44° WNW 01:41:30 10° N
GEOS 3 Rocket 4.1 01:33:21 10° NE 01:38:13 45° ESE 01:38:13 45° ESE
Cosmos 2297 Rocket 4.1 01:38:31 17° W 01:41:02 22° NW 01:45:26 10° N
Cosmos 1553 Rocket 3.8 01:41:05 67° SSW 01:42:01 86° W 01:48:13 10° N
Cosmos 1371 Rocket 4.1 01:38:39 10° NNW 01:43:27 60° W 01:43:27 60° W
Cosmos 2227 Rocket 4.3 01:41:34 14° W 01:44:28 19° NW 01:48:31 10° N
PSLV R/B 3.7 01:45:39 10° NNE 01:49:36 73° N 01:49:36 73° N
Cosmos 2237 Rocket 4.4 01:48:06 10° WNW 01:49:16 12° W 01:49:16 12° W
ISS -0.8 01:50:55 10° NW 01:51:14 12° NW 01:51:14 12° NW
Cosmos 1603 3.6 01:48:47 10° NNW 01:54:29 88° ENE 01:55:22 66° SSE
Cosmos 1452 Rocket 4.0 01:53:34 10° NNW 01:58:46 56° ENE 02:00:20 40° ESE
Cosmos 2056 Rocket 3.7 01:55:52 10° NNW 02:00:23 52° W 02:00:23 52° W
Cosmos 2221 3.9 01:57:04 10° NNE 02:01:03 33° ENE 02:01:57 30° E
Meteor 2-1 Rocket 4.2 01:56:23 10° NNW 02:02:10 82° W 02:03:02 65° S
Cosmos 2292 Rocket 4.1 01:58:42 10° NNW 02:02:11 53° WNW 02:02:11 53° WNW
Cosmos 2227 4.2 02:03:34 58° WSW 02:04:24 67° WNW 02:10:03 10° NNE
Cosmos 158 Rocket 4.1 02:05:50 62° SE 02:06:25 68° ESE 02:11:48 10° NNE
Cosmos 883 Rocket 4.4 02:11:16 53° S 02:12:47 79° E 02:18:54 10° N
Cosmos 1674 3.9 02:18:40 33° NW 02:18:40 33° NW 02:21:18 10° N
Cosmos 1626 3.8 02:17:53 26° E 02:17:59 26° E 02:21:09 10° NNE
SL-16 R/B 3.4 02:14:42 18° SE 02:19:10 47° ENE 02:25:04 10° N
Meteor 1-21 Rocket 4.3 02:19:15 54° S 02:20:41 80° E 02:26:38 10° NNE
Cosmos 2315 Rocket 4.0 02:23:40 45° SSE 02:25:39 75° E 02:31:53 10° N
CZ-4B R/B 2.5 02:27:50 40° NNW 02:27:50 40° NNW 02:30:10 10° NNW
Cosmos 1420 Rocket 3.9 02:23:00 10° NNW 02:28:15 87° ENE 02:29:33 52° SSE
Cosmos 1842 Rocket 3.7 02:24:14 10° NNW 02:28:16 59° WNW 02:28:16 59° WNW
Genesis I 3.8 02:29:49 48° E 02:29:49 48° E 02:33:23 10° NE
NOSS 3-1 (C) 3.6 02:27:45 43° WSW 02:29:30 63° NW 02:35:54 10° NNE
Cosmos 1745 Rocket 4.4 02:24:21 10° NNW 02:30:24 47° W 02:31:39 42° WSW
CZ-2D R/B 3.0 02:25:50 10° NNE 02:30:44 40° E 02:32:31 31° SE
Cosmos 1340 2.8 02:28:46 10° N 02:32:07 68° N 02:32:07 68° N
Aureole 1 Rocket 3.3 02:35:14 44° NNE 02:35:14 44° NNE 02:37:24 10° NNE
CBERS-1 4.2 02:34:37 10° NNE 02:39:43 65° ESE 02:41:11 44° SSE
SL-08 ROCKET BODY 4.4 02:33:59 10° N 02:40:06 82° E 02:42:53 35° SSE
SeaSat 1 3.5 02:35:28 10° SE 02:40:08 45° ENE 02:44:50 10° NNW
AQUA 4.1 02:37:24 10° NNE 02:42:07 59° E 02:43:20 44° SSE
BREEZE M DEB (TANK) 3.7 02:45:12 35° SSW 02:48:17 54° SSE 02:52:00 10° ENE
IRS-1D 4.2 02:43:11 10° NNE 02:48:23 49° E 02:50:40 30° SSE
Cosmos 1844 Rocket 4.2 02:45:39 19° SE 02:48:27 28° ESE 02:53:14 10° NE
NOSS 3-1 (A) 3.5 02:47:39 40° WSW 02:49:45 65° NW 02:56:12 10° NNE
NOSS 2-3 (C) 4.3 02:51:25 40° SSE 02:52:28 47° ESE 02:57:25 10° NE
Resurs 1-4 Rocket 2.3 02:47:13 10° NNE 02:52:31 67° ESE 02:54:35 37° S
H-2A R/B 2.7 02:48:56 10° NNE 02:53:26 72° ESE 02:54:27 50° SSE
ARIANE 5 R/B 3.5 02:49:37 10° NNE 02:54:24 40° E 02:56:56 24° SSE
Cosmos 1689 Rocket 4.3 02:58:08 19° NW 02:58:08 19° NW 02:59:26 10° NW
NPP 3.6 02:52:15 10° NNE 02:57:40 80° WNW 02:59:32 42° SSW
IRS-P3 4.0 02:52:18 10° NNE 02:57:40 87° WNW 02:59:33 42° SSW
USA 267 3.4 02:52:15 10° NE 02:58:43 61° SE 03:01:37 34° SSW
Okean 3 Rocket 3.5 03:01:20 52° SSW 03:02:25 86° W 03:06:54 10° N
UNK 3.6 03:02:33 41° S 03:04:09 81° WSW 03:08:51 10° NNW
Cosmos 1943 3.6 03:01:02 10° NW 03:06:20 41° WSW 03:07:25 37° SW
Cosmos 2263 Rocket 2.8 03:04:28 32° WSW 03:06:36 45° WNW 03:12:05 10° NNE
Cosmos 1300 3.6 03:03:20 10° NNW 03:06:26 34° WNW 03:06:26 34° WNW
SL-08 R/B 3.3 03:05:03 37° S 03:07:00 76° WSW 03:11:57 10° NNW
Meteor 1-11 4.5 03:04:19 28° SSE 03:07:19 64° E 03:12:53 10° NNE
Cosmos 1709 Rocket 4.3 03:01:20 10° NNW 03:07:25 49° W 03:09:45 34° SW
Cosmos 2074 Rocket 4.2 03:01:36 10° N 03:07:49 72° E 03:12:51 16° SSE
DELTA 2 R/B (1) 3.5 03:05:38 24° W 03:09:01 62° SSW 03:14:33 10° ESE
Meteor 2-2 Rocket 4.4 03:03:39 10° N 03:09:28 76° E 03:13:42 19° SSE
Cosmos 2058 4.3 03:07:34 19° SE 03:09:55 35° E 03:13:46 10° NNE
Cosmos 2184 Rocket 4.2 03:05:49 10° N 03:12:13 75° E 03:17:39 15° SSE
ADEOS II 4.0 03:09:47 10° NE 03:13:58 23° E 03:18:06 10° SE
Cosmos 2285 Rocket 4.3 03:13:14 31° SW 03:16:07 54° WNW 03:22:20 10° N
Cosmos 1607 4.0 03:10:09 10° NNW 03:16:36 83° NE 03:22:54 10° SE
Cosmos 1455 2.7 03:13:43 10° N 03:17:25 55° E 03:19:31 23° SSE
BREEZE-M R/B 4.3 03:25:44 26° S 03:25:44 26° S 03:29:24 10° SSE
Cosmos 1076 Rocket 4.1 03:24:23 35° WSW 03:25:26 41° WNW 03:29:33 10° N
OAO 2 Rocket 3.9 03:27:46 32° SSW 03:28:48 36° S 03:33:18 10° ESE
Cosmos 1269 Rocket 4.4 03:30:29 29° SW 03:32:53 52° WNW 03:38:04 10° N
Cosmos 1331 Rocket 3.9 03:29:44 10° NNW 03:34:56 86° ENE 03:40:06 10° SSE
Cosmos 2327 Rocket 4.4 03:29:22 10° N 03:35:30 85° W 03:41:08 12° S
Cosmos 2151 3.4 03:35:03 20° S 03:37:56 61° E 03:42:12 10° NNE
Cosmos 2221 4.0 03:35:07 10° NW 03:38:24 21° W 03:38:47 21° W
Meteor 2-21 4.5 03:32:51 10° N 03:39:00 82° E 03:45:03 10° S
MOZ.5/SAFIR/RUBIN 5/SL-8 3.9 03:36:20 25° S 03:39:02 57° W 03:43:44 10° NNW
NOSS 2-3 (D) 4.0 03:41:31 28° SW 03:43:57 66° NW 03:49:16 10° NNE
Cosmos 2251 Rocket 4.0 03:41:24 17° S 03:45:27 61° ESE 03:50:45 10° NNE
ADEOS 3.8 03:42:40 10° NNE 03:47:54 70° ESE 03:52:17 15° S
Orbus 7S? 3.8 03:48:17 23° SSE 03:49:07 29° SE 03:51:49 10° ENE
SAR-Lupe-2 3.5 03:48:14 21° S 03:50:29 69° WSW 03:54:04 10° NNW
Cosmos 1626 3.8 03:52:29 17° W 03:53:18 19° WNW 03:55:59 10° NNW
Meteor 1-27 4.3 03:47:53 10° NNW 03:53:30 61° W 03:58:48 12° S
Geosat 4.2 03:50:04 10° NNE 03:55:00 58° WNW 03:58:17 21° SW
Meteor 2-14 Rocket 4.4 03:51:51 10° N 03:58:00 87° W 04:04:05 10° S
NOSS 5 (C) 4.5 03:58:30 25° SW 04:00:31 69° NW 04:03:39 10° NNE
Cosmos 1328 Rocket 3.6 03:57:54 10° NNW 04:02:10 58° W 04:05:49 13° S
SL-16 R/B 3.5 03:59:47 19° SW 04:02:57 28° W 04:08:12 10° NW
Cosmos 1500 Rocket 3.7 03:59:20 13° S 04:03:19 80° E 04:07:45 10° N
Cosmos 405 Rocket 3.2 04:02:14 10° N 04:06:04 61° ENE 04:09:48 10° SSE
Cosmos 2228 Rocket 3.1 04:03:17 10° N 04:07:54 79° W 04:12:26 10° S
CZ-2D R/B 3.4 04:06:21 10° N 04:10:34 26° WNW 04:13:52 14° WSW
SL-19 R/B 3.6 04:09:15 10° SSE 04:12:12 81° ENE 04:15:02 10° NNW
ATLAS 2AS CENTAUR R/B 3.3 04:05:41 12° SSW 04:12:52 68° ESE 04:20:56 10° NE
Cosmos 921 Rocket 4.3 04:10:22 10° NW 04:13:42 22° W 04:15:35 17° SW
NOSS 8 (A) 4.2 04:15:28 19° SW 04:17:38 73° NW 04:20:50 10° NNE
SeaSat 1 3.5 04:14:42 14° SSW 04:17:47 24° WSW 04:21:47 10° NW
Cosmos 1515 Rocket 3.8 04:19:56 10° NNW 04:24:07 49° W 04:28:18 10° SSW
GP-B 3.1 04:20:35 10° N 04:25:03 86° W 04:29:29 10° S
Meteor 2-16 Rocket 4.5 04:21:52 10° NNW 04:27:53 63° W 04:33:54 10° S
Meteor 2-10 Rocket 3.4 04:24:46 10° NNW 04:29:50 72° W 04:34:47 10° S
Cosmos 2341 Rocket 4.0 04:23:52 10° NNW 04:30:06 73° W 04:36:21 10° S
Cosmos 1441 Rocket 3.5 04:26:36 10° NNW 04:30:29 51° W 04:34:17 10° S
Resurs 1-4 Rocket 3.9 04:28:25 10° NNW 04:31:47 17° WNW 04:35:07 10° W
Cosmos 1844 Rocket 3.4 04:27:19 13° SW 04:32:07 42° WNW 04:37:30 10° NNE
ARIANE 5 R/B 3.8 04:29:11 10° NNW 04:33:17 25° WNW 04:37:17 10° WSW
PSLV R/B 4.1 04:30:46 10° NNE 04:34:59 58° E 04:39:13 10° S
Okean O Rocket 4.0 04:31:50 10° NE 04:35:16 22° E 04:38:41 10° SE
SL-8 Rocket 4.1 04:32:43 10° N 04:38:56 87° E 04:45:09 10° S
UNKNOWN OBJECT B 4.0 04:36:07 10° NNW 04:39:15 26° WNW 04:42:24 10° SW
Cosmos 2278 Rocket 2.4 04:34:14 10° SSW 04:39:53 78° ESE 04:45:34 10° NNE
Cosmos 1151 Rocket 3.8 04:36:15 10° NNW 04:40:09 33° W 04:44:02 10° SSW
USA 267 4.0 04:35:24 10° NE 04:41:35 46° NNW 04:47:44 10° W
Helios 1A Rocket 4.2 04:38:34 10° NNW 04:41:59 26° WNW 04:45:22 10° SW
Cosmos 1892 3.9 04:40:13 10° SSE 04:43:54 44° E 04:47:36 10° NNE
Cosmos 1844 4.3 04:39:32 10° SW 04:44:51 43° WNW 04:50:16 10° NNE
Cosmos 2181 Rocket 4.1 04:39:49 10° SSW 04:46:13 68° W 04:52:39 10° N
Cosmos 1833 Rocket 4.1 04:43:46 10° NNW 04:49:09 44° ENE 04:54:29 10° SE
Cosmos 2366 rocket 4.2 04:43:43 10° N 04:50:01 81° E 04:56:12 10° S
Sich 1 3.6 04:47:23 10° S 04:51:34 61° E 04:55:48 10° NNE
ADEOS II 2.6 04:48:52 10° N 04:53:49 43° WNW 04:58:46 10° SW
Cosmos 1869 4.2 04:51:28 10° NNW 04:54:55 29° W 04:58:20 10° SSW
DELTA 2 R/B (1) 4.5 04:50:13 10° W 04:54:58 29° SSW 04:59:42 10° SSE
Cosmos 724 4.4 04:50:01 10° NW 04:56:00 79° WSW 05:02:04 10° SSE
ATLAS 3B R/B 3.0 04:49:32 10° NNW 04:56:10 70° NE 05:02:42 10° SE
BREEZE-M DEB (TANK) 2.8 04:50:57 10° SW 04:57:04 62° SSE 04:59:19 10° ENE
